Location: *
(53.9002°N, 27.5624°E)
Time: 16:08:53
(UTC+00:00)

Cosmos 2344 - Pass Details

Date: 12 November 2019
Orbit: 1257 x 2984 km, 63.3° (Epoch: 14 December)

Event Time Altitude Azimuth Distance (km) Brightness Sun altitude
Rises 17:33:54 0° 255° (WSW) 4,208 7.3 -28.9°
Reaches altitude 10° 17:36:36 10° 260° (W) 3,264 6.5 -29.3°
Maximum altitude 17:44:06 56° 339° (NNW) 1,630 4.2 -30.4°
Enters shadow 17:47:46 35° 38° (NE) 2,238 4.6 -30.9°
